Year,Month,Day,Hour,Minute,Value (Times are PST for temperature in C)
2007,09,23,00,00,10.10
2007,09,23,00,01,10.10
2007,09,23,00,02,10.10
2007,09,23,00,03,10.10
2007,09,23,00,04,10.10
2007,09,23,00,05,10.10
2007,09,23,00,06,10.10
2007,09,23,00,07,10.10
2007,09,23,00,08,10.10
2007,09,23,00,09,10.10
2007,09,23,00,10,10.10
2007,09,23,00,11,10.10
2007,09,23,00,12,10.10
2007,09,23,00,13,10.20
2007,09,23,00,14,10.20
2007,09,23,00,15,10.20
2007,09,23,00,16,10.30
2007,09,23,00,17,10.30
2007,09,23,00,18,10.30
2007,09,23,00,19,10.40
2007,09,23,00,20,10.40
2007,09,23,00,21,10.40
2007,09,23,00,22,10.40
2007,09,23,00,23,10.60
2007,09,23,00,24,10.60
2007,09,23,00,25,10.60
2007,09,23,00,26,10.60
2007,09,23,00,27,10.70
2007,09,23,00,28,10.70
2007,09,23,00,29,10.80
2007,09,23,00,30,10.80
2007,09,23,00,31,10.80
2007,09,23,00,32,10.90
2007,09,23,00,33,10.90
2007,09,23,00,34,10.90
2007,09,23,00,35,10.90
2007,09,23,00,36,10.90
2007,09,23,00,37,10.90
2007,09,23,00,38,10.90
2007,09,23,00,39,10.90
2007,09,23,00,40,10.90
2007,09,23,00,41,10.90
2007,09,23,00,42,10.90
2007,09,23,00,43,11.00
2007,09,23,00,44,11.10
2007,09,23,00,45,11.10
2007,09,23,00,46,11.10
2007,09,23,00,47,11.10
2007,09,23,00,48,11.10
2007,09,23,00,49,11.10
2007,09,23,00,50,11.10
2007,09,23,00,51,11.10
2007,09,23,00,52,11.10
2007,09,23,00,53,11.10
2007,09,23,00,54,11.10
2007,09,23,00,55,11.10
2007,09,23,00,56,11.10
2007,09,23,00,57,11.20
2007,09,23,00,58,11.20
2007,09,23,00,59,11.20
2007,09,23,01,00,11.20
2007,09,23,01,01,11.20
2007,09,23,01,02,11.20
2007,09,23,01,03,11.20
2007,09,23,01,04,11.20
2007,09,23,01,05,11.20
2007,09,23,01,06,11.20
2007,09,23,01,07,11.20
2007,09,23,01,08,11.20
2007,09,23,01,09,11.10
2007,09,23,01,10,11.10
2007,09,23,01,11,11.10
2007,09,23,01,12,11.10
2007,09,23,01,13,11.10
2007,09,23,01,14,11.10
2007,09,23,01,15,11.10
2007,09,23,01,16,11.10
2007,09,23,01,17,11.20
2007,09,23,01,18,11.20
2007,09,23,01,19,11.20
2007,09,23,01,20,11.20
2007,09,23,01,21,11.20
2007,09,23,01,22,11.20
2007,09,23,01,23,11.20
2007,09,23,01,24,11.20
2007,09,23,01,25,11.20
2007,09,23,01,26,11.20
2007,09,23,01,27,11.20
2007,09,23,01,28,11.20
2007,09,23,01,29,11.20
2007,09,23,01,30,11.20
2007,09,23,01,31,11.20
2007,09,23,01,32,11.20
2007,09,23,01,33,11.20
2007,09,23,01,34,11.20
2007,09,23,01,35,11.20
2007,09,23,01,36,11.20
2007,09,23,01,37,11.20
2007,09,23,01,38,11.20
2007,09,23,01,39,11.20
2007,09,23,01,40,11.20
2007,09,23,01,41,11.20
2007,09,23,01,42,11.20
2007,09,23,01,43,11.20
2007,09,23,01,44,11.10
2007,09,23,01,45,11.10
2007,09,23,01,46,11.10
2007,09,23,01,47,11.10
2007,09,23,01,48,11.10
2007,09,23,01,49,11.10
2007,09,23,01,50,11.10
2007,09,23,01,51,11.10
2007,09,23,01,52,11.10
2007,09,23,01,53,11.10
2007,09,23,01,54,11.10
2007,09,23,01,55,11.10
2007,09,23,01,56,11.10
2007,09,23,01,57,11.10
2007,09,23,01,58,11.10
2007,09,23,01,59,11.10
2007,09,23,02,00,11.10
2007,09,23,02,01,11.10
2007,09,23,02,02,11.10
2007,09,23,02,03,11.10
2007,09,23,02,04,11.10
2007,09,23,02,05,11.10
2007,09,23,02,06,11.10
2007,09,23,02,07,11.10
2007,09,23,02,08,11.00
2007,09,23,02,09,10.90
2007,09,23,02,10,10.90
2007,09,23,02,11,10.90
2007,09,23,02,12,10.90
2007,09,23,02,13,10.90
2007,09,23,02,14,10.90
2007,09,23,02,15,10.90
2007,09,23,02,16,10.90
2007,09,23,02,17,10.90
2007,09,23,02,18,10.90
2007,09,23,02,19,10.90
2007,09,23,02,20,10.90
2007,09,23,02,21,10.90
2007,09,23,02,22,10.80
2007,09,23,02,23,10.80
2007,09,23,02,24,10.80
2007,09,23,02,25,10.80
2007,09,23,02,26,10.70
2007,09,23,02,27,10.70
2007,09,23,02,28,10.70
2007,09,23,02,29,10.70
2007,09,23,02,30,10.70
2007,09,23,02,31,10.70
2007,09,23,02,32,10.70
2007,09,23,02,33,10.70
2007,09,23,02,34,10.70
2007,09,23,02,35,10.70
2007,09,23,02,36,10.70
2007,09,23,02,37,10.70
2007,09,23,02,38,10.70
2007,09,23,02,39,10.70
2007,09,23,02,40,10.70
2007,09,23,02,41,10.70
2007,09,23,02,42,10.70
2007,09,23,02,43,10.70
2007,09,23,02,44,10.70
2007,09,23,02,45,10.70
2007,09,23,02,46,10.70
2007,09,23,02,47,10.70
2007,09,23,02,48,10.70
2007,09,23,02,49,10.70
2007,09,23,02,50,10.70
2007,09,23,02,51,10.70
2007,09,23,02,52,10.70
2007,09,23,02,53,10.70
2007,09,23,02,54,10.70
2007,09,23,02,55,10.70
2007,09,23,02,56,10.70
2007,09,23,02,57,10.70
2007,09,23,02,58,10.70
2007,09,23,02,59,10.60
2007,09,23,03,00,10.60
2007,09,23,03,01,10.60
2007,09,23,03,02,10.60
2007,09,23,03,03,10.60
2007,09,23,03,04,10.60
2007,09,23,03,05,10.60
2007,09,23,03,06,10.60
2007,09,23,03,07,10.50
2007,09,23,03,08,10.40
2007,09,23,03,09,10.40
2007,09,23,03,10,10.40
2007,09,23,03,11,10.40
2007,09,23,03,12,10.40
2007,09,23,03,13,10.40
2007,09,23,03,14,10.40
2007,09,23,03,15,10.40
2007,09,23,03,16,10.40
2007,09,23,03,17,10.40
2007,09,23,03,18,10.40
2007,09,23,03,19,10.40
2007,09,23,03,20,10.40
2007,09,23,03,21,10.40
2007,09,23,03,22,10.30
2007,09,23,03,23,10.30
2007,09,23,03,24,10.30
2007,09,23,03,25,10.30
2007,09,23,03,26,10.30
2007,09,23,03,27,10.30
2007,09,23,03,28,10.30
2007,09,23,03,29,10.30
2007,09,23,03,30,10.30
2007,09,23,03,31,10.30
2007,09,23,03,32,10.30
2007,09,23,03,33,10.30
2007,09,23,03,34,10.30
2007,09,23,03,35,10.30
2007,09,23,03,36,10.30
2007,09,23,03,37,10.20
2007,09,23,03,38,10.20
2007,09,23,03,39,10.20
2007,09,23,03,40,10.20
2007,09,23,03,41,10.10
2007,09,23,03,42,10.10
2007,09,23,03,43,10.00
2007,09,23,03,44,9.90
2007,09,23,03,45,9.90
2007,09,23,03,46,9.90
2007,09,23,03,47,9.80
2007,09,23,03,48,9.70
2007,09,23,03,49,9.70
2007,09,23,03,50,9.70
2007,09,23,03,51,9.60
2007,09,23,03,52,9.50
2007,09,23,03,53,9.40
2007,09,23,03,54,9.40
2007,09,23,03,55,9.30
2007,09,23,03,56,9.30
2007,09,23,03,57,9.30
2007,09,23,03,58,9.20
2007,09,23,03,59,9.20
2007,09,23,04,00,9.20
2007,09,23,04,01,9.20
2007,09,23,04,02,9.10
2007,09,23,04,03,9.10
2007,09,23,04,04,9.10
2007,09,23,04,05,9.10
2007,09,23,04,06,9.00
2007,09,23,04,07,9.00
2007,09,23,04,08,9.00
2007,09,23,04,09,9.00
2007,09,23,04,10,9.10
2007,09,23,04,11,9.10
2007,09,23,04,12,9.20
2007,09,23,04,13,9.20
2007,09,23,04,14,9.20
2007,09,23,04,15,9.30
2007,09,23,04,16,9.40
2007,09,23,04,17,9.40
2007,09,23,04,18,9.50
2007,09,23,04,19,9.60
2007,09,23,04,20,9.60
2007,09,23,04,21,9.70
2007,09,23,04,22,9.70
2007,09,23,04,23,9.70
2007,09,23,04,24,9.80
2007,09,23,04,25,9.80
2007,09,23,04,26,9.80
2007,09,23,04,27,9.90
2007,09,23,04,28,9.90
2007,09,23,04,29,9.90
2007,09,23,04,30,9.90
2007,09,23,04,31,9.90
2007,09,23,04,32,9.90
2007,09,23,04,33,9.90
2007,09,23,04,34,9.90
2007,09,23,04,35,9.90
2007,09,23,04,36,9.90
2007,09,23,04,37,9.90
2007,09,23,04,38,9.90
2007,09,23,04,39,9.90
2007,09,23,04,40,9.90
2007,09,23,04,41,9.90
2007,09,23,04,42,9.90
2007,09,23,04,43,9.90
2007,09,23,04,44,9.90
2007,09,23,04,45,9.90
2007,09,23,04,46,9.90
2007,09,23,04,47,9.90
2007,09,23,04,48,9.90
2007,09,23,04,49,9.90
2007,09,23,04,50,9.90
2007,09,23,04,51,9.90
2007,09,23,04,52,9.90
2007,09,23,04,53,9.90
2007,09,23,04,54,9.90
2007,09,23,04,55,9.90
2007,09,23,04,56,9.90
2007,09,23,04,57,9.90
2007,09,23,04,58,9.90
2007,09,23,04,59,9.90
2007,09,23,05,00,9.90
2007,09,23,05,01,9.90
2007,09,23,05,02,9.80
2007,09,23,05,03,9.80
2007,09,23,05,04,9.80
2007,09,23,05,05,9.80
2007,09,23,05,06,9.80
2007,09,23,05,07,9.80
2007,09,23,05,08,9.80
2007,09,23,05,09,9.80
2007,09,23,05,10,9.80
2007,09,23,05,11,9.80
2007,09,23,05,12,9.70
2007,09,23,05,13,9.70
2007,09,23,05,14,9.70
2007,09,23,05,15,9.70
2007,09,23,05,16,9.70
2007,09,23,05,17,9.70
2007,09,23,05,18,9.70
2007,09,23,05,19,9.60
2007,09,23,05,20,9.60
2007,09,23,05,21,9.60
2007,09,23,05,22,9.50
2007,09,23,05,23,9.50
2007,09,23,05,24,9.50
2007,09,23,05,25,9.50
2007,09,23,05,26,9.50
2007,09,23,05,27,9.40
2007,09,23,05,28,9.40
2007,09,23,05,29,9.40
2007,09,23,05,30,9.40
2007,09,23,05,31,9.40
2007,09,23,05,32,9.40
2007,09,23,05,33,9.30
2007,09,23,05,34,9.30
2007,09,23,05,35,9.30
2007,09,23,05,36,9.30
2007,09,23,05,37,9.30
2007,09,23,05,38,9.30
2007,09,23,05,39,9.30
2007,09,23,05,40,9.30
2007,09,23,05,41,9.30
2007,09,23,05,42,9.30
2007,09,23,05,43,9.30
2007,09,23,05,44,9.20
2007,09,23,05,45,9.20
2007,09,23,05,46,9.20
2007,09,23,05,47,9.20
2007,09,23,05,48,9.20
2007,09,23,05,49,9.20
2007,09,23,05,50,9.20
2007,09,23,05,51,9.30
2007,09,23,05,52,9.30
2007,09,23,05,53,9.30
2007,09,23,05,54,9.30
2007,09,23,05,55,9.40
2007,09,23,05,56,9.40
2007,09,23,05,57,9.40
2007,09,23,05,58,9.40
2007,09,23,05,59,9.50
2007,09,23,06,00,9.50
2007,09,23,06,01,9.50
2007,09,23,06,02,9.50
2007,09,23,06,03,9.50
2007,09,23,06,04,9.50
2007,09,23,06,05,9.60
2007,09,23,06,06,9.60
2007,09,23,06,07,9.60
2007,09,23,06,08,9.60
2007,09,23,06,09,9.60
2007,09,23,06,10,9.60
2007,09,23,06,11,9.60
2007,09,23,06,12,9.60
2007,09,23,06,13,9.60
2007,09,23,06,14,9.60
2007,09,23,06,15,9.60
2007,09,23,06,16,9.60
2007,09,23,06,17,9.60
2007,09,23,06,18,9.70
2007,09,23,06,19,9.70
2007,09,23,06,20,9.70
2007,09,23,06,21,9.70
2007,09,23,06,22,9.80
2007,09,23,06,23,9.80
2007,09,23,06,24,9.90
2007,09,23,06,25,9.90
2007,09,23,06,26,9.90
2007,09,23,06,27,9.90
2007,09,23,06,28,9.90
2007,09,23,06,29,9.90
2007,09,23,06,30,9.90
2007,09,23,06,31,9.90
2007,09,23,06,32,9.90
2007,09,23,06,33,9.90
2007,09,23,06,34,9.90
2007,09,23,06,35,9.90
2007,09,23,06,36,9.90
2007,09,23,06,37,9.90
2007,09,23,06,38,9.80
2007,09,23,06,39,9.80
2007,09,23,06,40,9.80
2007,09,23,06,41,9.70
2007,09,23,06,42,9.70
2007,09,23,06,43,9.70
2007,09,23,06,44,9.70
2007,09,23,06,45,9.70
2007,09,23,06,46,9.70
2007,09,23,06,47,9.70
2007,09,23,06,48,9.70
2007,09,23,06,49,9.60
2007,09,23,06,50,9.60
2007,09,23,06,51,9.60
2007,09,23,06,52,9.60
2007,09,23,06,53,9.60
2007,09,23,06,54,9.60
2007,09,23,06,55,9.50
2007,09,23,06,56,9.50
2007,09,23,06,57,9.50
2007,09,23,06,58,9.50
2007,09,23,06,59,9.50
2007,09,23,07,00,9.50
2007,09,23,07,01,9.50
2007,09,23,07,02,9.50
2007,09,23,07,03,9.40
2007,09,23,07,04,9.50
2007,09,23,07,05,9.50
2007,09,23,07,06,9.50
2007,09,23,07,07,9.50
2007,09,23,07,08,9.50
2007,09,23,07,09,9.50
2007,09,23,07,10,9.50
2007,09,23,07,11,9.50
2007,09,23,07,12,9.50
2007,09,23,07,13,9.50
2007,09,23,07,14,9.50
2007,09,23,07,15,9.50
2007,09,23,07,16,9.50
2007,09,23,07,17,9.50
2007,09,23,07,18,9.50
2007,09,23,07,19,9.60
2007,09,23,07,20,9.60
2007,09,23,07,21,9.60
2007,09,23,07,22,9.60
2007,09,23,07,23,9.60
2007,09,23,07,24,9.60
2007,09,23,07,25,9.70
2007,09,23,07,26,9.70
2007,09,23,07,27,9.70
2007,09,23,07,28,9.70
2007,09,23,07,29,9.70
2007,09,23,07,30,9.70
2007,09,23,07,31,9.70
2007,09,23,07,32,9.70
2007,09,23,07,33,9.70
2007,09,23,07,34,9.70
2007,09,23,07,35,9.80
2007,09,23,07,36,9.80
2007,09,23,07,37,9.80
2007,09,23,07,38,9.80
2007,09,23,07,39,9.90
2007,09,23,07,40,9.90
2007,09,23,07,41,9.90
2007,09,23,07,42,9.90
2007,09,23,07,43,9.90
2007,09,23,07,44,9.90
2007,09,23,07,45,9.90
2007,09,23,07,46,10.00
2007,09,23,07,47,10.10
2007,09,23,07,48,10.10
2007,09,23,07,49,10.10
2007,09,23,07,50,10.10
2007,09,23,07,51,10.10
2007,09,23,07,52,10.10
2007,09,23,07,53,10.10
2007,09,23,07,54,10.10
2007,09,23,07,55,10.10
2007,09,23,07,56,10.10
2007,09,23,07,57,10.10
2007,09,23,07,58,10.10
2007,09,23,07,59,10.10
2007,09,23,08,00,10.10
2007,09,23,08,01,10.10
2007,09,23,08,02,10.20
2007,09,23,08,03,10.20
2007,09,23,08,04,10.20
2007,09,23,08,05,10.20
2007,09,23,08,06,10.20
2007,09,23,08,07,10.30
2007,09,23,08,08,10.30
2007,09,23,08,09,10.30
2007,09,23,08,10,10.30
2007,09,23,08,11,10.40
2007,09,23,08,12,10.40
2007,09,23,08,13,10.40
2007,09,23,08,14,10.40
2007,09,23,08,15,10.50
2007,09,23,08,16,10.60
2007,09,23,08,17,10.60
2007,09,23,08,18,10.60
2007,09,23,08,19,10.60
2007,09,23,08,20,10.60
2007,09,23,08,21,10.60
2007,09,23,08,22,10.60
2007,09,23,08,23,10.70
2007,09,23,08,24,10.70
2007,09,23,08,25,10.70
2007,09,23,08,26,10.80
2007,09,23,08,27,10.80
2007,09,23,08,28,10.80
2007,09,23,08,29,10.90
2007,09,23,08,30,10.90
2007,09,23,08,31,10.90
2007,09,23,08,32,10.90
2007,09,23,08,33,10.90
2007,09,23,08,34,10.90
2007,09,23,08,35,11.10
2007,09,23,08,36,11.10
2007,09,23,08,37,11.10
2007,09,23,08,38,11.10
2007,09,23,08,39,11.10
2007,09,23,08,40,11.20
2007,09,23,08,41,11.20
2007,09,23,08,42,11.20
2007,09,23,08,43,11.20
2007,09,23,08,44,11.20
2007,09,23,08,45,11.30
2007,09,23,08,46,11.30
2007,09,23,08,47,11.30
2007,09,23,08,48,11.30
2007,09,23,08,49,11.30
2007,09,23,08,50,11.30
2007,09,23,08,51,11.30
2007,09,23,08,52,11.30
2007,09,23,08,53,11.30
2007,09,23,08,54,11.30
2007,09,23,08,55,11.40
2007,09,23,08,56,11.40
2007,09,23,08,57,11.40
2007,09,23,08,58,11.40
2007,09,23,08,59,11.40
2007,09,23,09,00,11.40
2007,09,23,09,01,11.40
2007,09,23,09,02,11.40
2007,09,23,09,03,11.40
2007,09,23,09,04,11.40
2007,09,23,09,05,11.40
2007,09,23,09,06,11.40
2007,09,23,09,07,11.40
2007,09,23,09,08,11.50
2007,09,23,09,09,11.60
2007,09,23,09,10,11.60
2007,09,23,09,11,11.60
2007,09,23,09,12,11.60
2007,09,23,09,13,11.60
2007,09,23,09,14,11.60
2007,09,23,09,15,11.60
2007,09,23,09,16,11.60
2007,09,23,09,17,11.60
2007,09,23,09,18,11.60
2007,09,23,09,19,11.60
2007,09,23,09,20,11.60
2007,09,23,09,21,11.60
2007,09,23,09,22,11.70
2007,09,23,09,23,11.70
2007,09,23,09,24,11.70
2007,09,23,09,25,11.70
2007,09,23,09,26,11.70
2007,09,23,09,27,11.70
2007,09,23,09,28,11.70
2007,09,23,09,29,11.70
2007,09,23,09,30,11.70
2007,09,23,09,31,11.70
2007,09,23,09,32,11.70
2007,09,23,09,33,11.70
2007,09,23,09,34,11.70
2007,09,23,09,35,11.70
2007,09,23,09,36,11.80
2007,09,23,09,37,11.80
2007,09,23,09,38,11.80
2007,09,23,09,39,11.80
2007,09,23,09,40,11.80
2007,09,23,09,41,11.90
2007,09,23,09,42,11.90
2007,09,23,09,43,11.90
2007,09,23,09,44,11.90
2007,09,23,09,45,11.90
2007,09,23,09,46,11.90
2007,09,23,09,47,11.90
2007,09,23,09,48,12.00
2007,09,23,09,49,12.00
2007,09,23,09,50,12.00
2007,09,23,09,51,12.00
2007,09,23,09,52,12.00
2007,09,23,09,53,12.00
2007,09,23,09,54,12.00
2007,09,23,09,55,12.00
2007,09,23,09,56,12.00
2007,09,23,09,57,12.00
2007,09,23,09,58,12.10
2007,09,23,09,59,12.10
2007,09,23,10,00,12.10
2007,09,23,10,01,12.10
2007,09,23,10,02,12.10
2007,09,23,10,03,12.10
2007,09,23,10,04,12.10
2007,09,23,10,05,12.10
2007,09,23,10,06,12.10
2007,09,23,10,07,12.10
2007,09,23,10,08,12.10
2007,09,23,10,09,12.20
2007,09,23,10,10,12.20
2007,09,23,10,11,12.20
2007,09,23,10,12,12.20
2007,09,23,10,13,12.20
2007,09,23,10,14,12.30
2007,09,23,10,15,12.30
2007,09,23,10,16,12.30
2007,09,23,10,17,12.30
2007,09,23,10,18,12.30
2007,09,23,10,19,12.30
2007,09,23,10,20,12.30
2007,09,23,10,21,12.30
2007,09,23,10,22,12.30
2007,09,23,10,23,12.30
2007,09,23,10,24,12.30
2007,09,23,10,25,12.30
2007,09,23,10,26,12.20
2007,09,23,10,27,12.20
2007,09,23,10,28,12.20
2007,09,23,10,29,12.20
2007,09,23,10,30,12.20
2007,09,23,10,31,12.30
2007,09,23,10,32,12.30
2007,09,23,10,33,12.30
2007,09,23,10,34,12.30
2007,09,23,10,35,12.30
2007,09,23,10,36,12.40
2007,09,23,10,37,12.50
2007,09,23,10,38,12.50
2007,09,23,10,39,12.60
2007,09,23,10,40,12.60
2007,09,23,10,41,12.70
2007,09,23,10,42,12.70
2007,09,23,10,43,12.70
2007,09,23,10,44,12.70
2007,09,23,10,45,12.70
2007,09,23,10,46,12.70
2007,09,23,10,47,12.70
2007,09,23,10,48,12.70
2007,09,23,10,49,12.70
2007,09,23,10,50,12.70
2007,09,23,10,51,12.70
2007,09,23,10,52,12.70
2007,09,23,10,53,12.70
2007,09,23,10,54,12.70
2007,09,23,10,55,12.70
2007,09,23,10,56,12.70
2007,09,23,10,57,12.70
2007,09,23,10,58,12.70
2007,09,23,10,59,12.70
2007,09,23,11,00,12.70
2007,09,23,11,01,12.70
2007,09,23,11,02,12.70
2007,09,23,11,03,12.70
2007,09,23,11,04,12.80
2007,09,23,11,05,12.80
2007,09,23,11,06,12.80
2007,09,23,11,07,12.70
2007,09,23,11,08,12.70
2007,09,23,11,09,12.70
2007,09,23,11,10,12.70
2007,09,23,11,11,12.70
2007,09,23,11,12,12.70
2007,09,23,11,13,12.70
2007,09,23,11,14,12.70
2007,09,23,11,15,12.70
2007,09,23,11,16,12.70
2007,09,23,11,17,12.70
2007,09,23,11,18,12.70
2007,09,23,11,19,12.70
2007,09,23,11,20,12.70
2007,09,23,11,21,12.70
2007,09,23,11,22,12.70
2007,09,23,11,23,12.80
2007,09,23,11,24,12.80
2007,09,23,11,25,12.80
2007,09,23,11,26,12.80
2007,09,23,11,27,12.80
2007,09,23,11,28,12.90
2007,09,23,11,29,12.90
2007,09,23,11,30,12.90
2007,09,23,11,31,13.00
2007,09,23,11,32,13.00
2007,09,23,11,33,13.10
2007,09,23,11,34,13.10
2007,09,23,11,35,13.20
2007,09,23,11,36,13.20
2007,09,23,11,37,13.30
2007,09,23,11,38,13.30
2007,09,23,11,39,13.30
2007,09,23,11,40,13.20
2007,09,23,11,41,13.20
2007,09,23,11,42,13.20
2007,09,23,11,43,13.20
2007,09,23,11,44,13.30
2007,09,23,11,45,13.40
2007,09,23,11,46,13.40
2007,09,23,11,47,13.30
2007,09,23,11,48,13.40
2007,09,23,11,49,13.30
2007,09,23,11,50,13.30
2007,09,23,11,51,13.30
2007,09,23,11,52,13.40
2007,09,23,11,53,13.40
2007,09,23,11,54,13.40
2007,09,23,11,55,13.50
2007,09,23,11,56,13.60
2007,09,23,11,57,13.70
2007,09,23,11,58,13.70
2007,09,23,11,59,13.60
2007,09,23,12,00,13.70
2007,09,23,12,01,13.70
2007,09,23,12,02,13.70
2007,09,23,12,03,13.70
2007,09,23,12,04,13.70
2007,09,23,12,05,13.70
2007,09,23,12,06,13.70
2007,09,23,12,07,13.60
2007,09,23,12,08,13.50
2007,09,23,12,09,13.50
2007,09,23,12,10,13.40
2007,09,23,12,11,13.50
2007,09,23,12,12,13.60
2007,09,23,12,13,13.70
2007,09,23,12,14,13.80
2007,09,23,12,15,13.90
2007,09,23,12,16,14.00
2007,09,23,12,17,14.00
2007,09,23,12,18,14.00
2007,09,23,12,19,14.00
2007,09,23,12,20,13.90
2007,09,23,12,21,13.70
2007,09,23,12,22,13.70
2007,09,23,12,23,13.70
2007,09,23,12,24,13.50
2007,09,23,12,25,13.50
2007,09,23,12,26,13.40
2007,09,23,12,27,13.40
2007,09,23,12,28,13.40
2007,09,23,12,29,13.40
2007,09,23,12,30,13.50
2007,09,23,12,31,13.50
2007,09,23,12,32,13.50
2007,09,23,12,33,13.60
2007,09,23,12,34,13.70
2007,09,23,12,35,13.70
2007,09,23,12,36,13.70
2007,09,23,12,37,13.70
2007,09,23,12,38,13.70
2007,09,23,12,39,13.70
2007,09,23,12,40,13.70
2007,09,23,12,41,13.70
2007,09,23,12,42,13.80
2007,09,23,12,43,13.80
2007,09,23,12,44,13.80
2007,09,23,12,45,13.80
2007,09,23,12,46,13.90
2007,09,23,12,47,14.00
2007,09,23,12,48,14.00
2007,09,23,12,49,13.90
2007,09,23,12,50,13.90
2007,09,23,12,51,13.90
2007,09,23,12,52,13.90
2007,09,23,12,53,14.00
2007,09,23,12,54,14.10
2007,09,23,12,55,14.20
2007,09,23,12,56,14.20
2007,09,23,12,57,14.10
2007,09,23,12,58,14.10
2007,09,23,12,59,14.10
2007,09,23,13,00,14.20
2007,09,23,13,01,14.20
2007,09,23,13,02,14.20
2007,09,23,13,03,14.20
2007,09,23,13,04,14.10
2007,09,23,13,05,14.00
2007,09,23,13,06,13.90
2007,09,23,13,07,13.70
2007,09,23,13,08,13.70
2007,09,23,13,09,13.60
2007,09,23,13,10,13.60
2007,09,23,13,11,13.50
2007,09,23,13,12,13.60
2007,09,23,13,13,13.60
2007,09,23,13,14,13.60
2007,09,23,13,15,13.70
2007,09,23,13,16,13.70
2007,09,23,13,17,13.80
2007,09,23,13,18,14.00
2007,09,23,13,19,14.10
2007,09,23,13,20,14.20
2007,09,23,13,21,14.30
2007,09,23,13,22,14.40
2007,09,23,13,23,14.30
2007,09,23,13,24,14.30
2007,09,23,13,25,14.20
2007,09,23,13,26,14.10
2007,09,23,13,27,14.10
2007,09,23,13,28,14.10
2007,09,23,13,29,14.10
2007,09,23,13,30,14.10
2007,09,23,13,31,14.10
2007,09,23,13,32,14.00
2007,09,23,13,33,13.90
2007,09,23,13,34,13.90
2007,09,23,13,35,13.90
2007,09,23,13,36,14.00
2007,09,23,13,37,14.00
2007,09,23,13,38,14.10
2007,09,23,13,39,14.20
2007,09,23,13,40,14.20
2007,09,23,13,41,14.30
2007,09,23,13,42,14.40
2007,09,23,13,43,14.40
2007,09,23,13,44,14.30
2007,09,23,13,45,14.20
2007,09,23,13,46,14.20
2007,09,23,13,47,14.10
2007,09,23,13,48,14.10
2007,09,23,13,49,14.10
2007,09,23,13,50,14.10
2007,09,23,13,51,14.10
2007,09,23,13,52,14.10
2007,09,23,13,53,14.10
2007,09,23,13,54,14.10
2007,09,23,13,55,14.10
2007,09,23,13,56,14.20
2007,09,23,13,57,14.10
2007,09,23,13,58,14.10
2007,09,23,13,59,14.20
2007,09,23,14,00,14.20
2007,09,23,14,01,14.30
2007,09,23,14,02,14.50
2007,09,23,14,03,14.50
2007,09,23,14,04,14.70
2007,09,23,14,05,14.80
2007,09,23,14,06,14.80
2007,09,23,14,07,14.90
2007,09,23,14,08,14.90
2007,09,23,14,09,14.90
2007,09,23,14,10,14.90
2007,09,23,14,11,14.90
2007,09,23,14,12,14.90
2007,09,23,14,13,14.80
2007,09,23,14,14,14.80
2007,09,23,14,15,14.80
2007,09,23,14,16,14.70
2007,09,23,14,17,14.60
2007,09,23,14,18,14.60
2007,09,23,14,19,14.60
2007,09,23,14,20,14.60
2007,09,23,14,21,14.60
2007,09,23,14,22,14.60
2007,09,23,14,23,14.50
2007,09,23,14,24,14.30
2007,09,23,14,25,14.20
2007,09,23,14,26,14.20
2007,09,23,14,27,14.20
2007,09,23,14,28,14.20
2007,09,23,14,29,14.20
2007,09,23,14,30,14.10
2007,09,23,14,31,14.00
2007,09,23,14,32,13.90
2007,09,23,14,33,13.90
2007,09,23,14,34,13.90
2007,09,23,14,35,14.00
2007,09,23,14,36,14.00
2007,09,23,14,37,14.00
2007,09,23,14,38,14.00
2007,09,23,14,39,13.90
2007,09,23,14,40,13.70
2007,09,23,14,41,13.60
2007,09,23,14,42,13.60
2007,09,23,14,43,13.70
2007,09,23,14,44,13.60
2007,09,23,14,45,13.60
2007,09,23,14,46,13.70
2007,09,23,14,47,13.80
2007,09,23,14,48,13.90
2007,09,23,14,49,14.00
2007,09,23,14,50,14.10
2007,09,23,14,51,14.20
2007,09,23,14,52,14.20
2007,09,23,14,53,14.20
2007,09,23,14,54,14.20
2007,09,23,14,55,14.30
2007,09,23,14,56,14.40
2007,09,23,14,57,14.40
2007,09,23,14,58,14.30
2007,09,23,14,59,14.30
2007,09,23,15,00,14.30
2007,09,23,15,01,14.40
2007,09,23,15,02,14.50
2007,09,23,15,03,14.50
2007,09,23,15,04,14.40
2007,09,23,15,05,14.40
2007,09,23,15,06,14.40
2007,09,23,15,07,14.40
2007,09,23,15,08,14.30
2007,09,23,15,09,14.20
2007,09,23,15,10,14.20
2007,09,23,15,11,14.20
2007,09,23,15,12,14.30
2007,09,23,15,13,14.40
2007,09,23,15,14,14.40
2007,09,23,15,15,14.40
2007,09,23,15,16,14.50
2007,09,23,15,17,14.60
2007,09,23,15,18,14.60
2007,09,23,15,19,14.60
2007,09,23,15,20,14.60
2007,09,23,15,21,14.60
2007,09,23,15,22,14.60
2007,09,23,15,23,14.60
2007,09,23,15,24,14.60
2007,09,23,15,25,14.60
2007,09,23,15,26,14.60
2007,09,23,15,27,14.60
2007,09,23,15,28,14.60
2007,09,23,15,29,14.60
2007,09,23,15,30,14.70
2007,09,23,15,31,14.70
2007,09,23,15,32,14.80
2007,09,23,15,33,14.80
2007,09,23,15,34,14.90
2007,09,23,15,35,14.90
2007,09,23,15,36,15.00
2007,09,23,15,37,15.00
2007,09,23,15,38,15.10
2007,09,23,15,39,15.00
2007,09,23,15,40,15.00
2007,09,23,15,41,14.90
2007,09,23,15,42,14.80
2007,09,23,15,43,14.80
2007,09,23,15,44,14.80
2007,09,23,15,45,14.80
2007,09,23,15,46,14.80
2007,09,23,15,47,14.80
2007,09,23,15,48,14.80
2007,09,23,15,49,14.60
2007,09,23,15,50,14.60
2007,09,23,15,51,14.60
2007,09,23,15,52,14.60
2007,09,23,15,53,14.60
2007,09,23,15,54,14.60
2007,09,23,15,55,14.60
2007,09,23,15,56,14.60
2007,09,23,15,57,14.70
2007,09,23,15,58,14.70
2007,09,23,15,59,14.70
2007,09,23,16,00,14.70
2007,09,23,16,01,14.70
2007,09,23,16,02,14.80
2007,09,23,16,03,14.80
2007,09,23,16,04,14.80
2007,09,23,16,05,14.80
2007,09,23,16,06,14.80
2007,09,23,16,07,14.80
2007,09,23,16,08,14.80
2007,09,23,16,09,14.80
2007,09,23,16,10,14.80
2007,09,23,16,11,14.80
2007,09,23,16,12,14.70
2007,09,23,16,13,14.70
2007,09,23,16,14,14.60
2007,09,23,16,15,14.50
2007,09,23,16,16,14.50
2007,09,23,16,17,14.50
2007,09,23,16,18,14.60
2007,09,23,16,19,14.60
2007,09,23,16,20,14.60
2007,09,23,16,21,14.70
2007,09,23,16,22,14.70
2007,09,23,16,23,14.70
2007,09,23,16,24,14.70
2007,09,23,16,25,14.70
2007,09,23,16,26,14.60
2007,09,23,16,27,14.60
2007,09,23,16,28,14.50
2007,09,23,16,29,14.50
2007,09,23,16,30,14.50
2007,09,23,16,31,14.40
2007,09,23,16,32,14.40
2007,09,23,16,33,14.40
2007,09,23,16,34,14.40
2007,09,23,16,35,14.30
2007,09,23,16,36,14.20
2007,09,23,16,37,14.30
2007,09,23,16,38,14.40
2007,09,23,16,39,14.50
2007,09,23,16,40,14.50
2007,09,23,16,41,14.60
2007,09,23,16,42,14.70
2007,09,23,16,43,14.70
2007,09,23,16,44,14.70
2007,09,23,16,45,14.70
2007,09,23,16,46,14.70
2007,09,23,16,47,14.70
2007,09,23,16,48,14.60
2007,09,23,16,49,14.60
2007,09,23,16,50,14.60
2007,09,23,16,51,14.60
2007,09,23,16,52,14.60
2007,09,23,16,53,14.50
2007,09,23,16,54,14.40
2007,09,23,16,55,14.30
2007,09,23,16,56,14.20
2007,09,23,16,57,14.10
2007,09,23,16,58,14.10
2007,09,23,16,59,14.00
2007,09,23,17,00,14.00
2007,09,23,17,01,14.00
2007,09,23,17,02,14.00
2007,09,23,17,03,14.00
2007,09,23,17,04,14.10
2007,09,23,17,05,14.10
2007,09,23,17,06,14.20
2007,09,23,17,07,14.20
2007,09,23,17,08,14.20
2007,09,23,17,09,14.20
2007,09,23,17,10,14.20
2007,09,23,17,11,14.20
2007,09,23,17,12,14.20
2007,09,23,17,13,14.20
2007,09,23,17,14,14.20
2007,09,23,17,15,14.20
2007,09,23,17,16,14.30
2007,09,23,17,17,14.30
2007,09,23,17,18,14.30
2007,09,23,17,19,14.40
2007,09,23,17,20,14.40
2007,09,23,17,21,14.40
2007,09,23,17,22,14.40
2007,09,23,17,23,14.40
2007,09,23,17,24,14.30
2007,09,23,17,25,14.30
2007,09,23,17,26,14.30
2007,09,23,17,27,14.40
2007,09,23,17,28,14.40
2007,09,23,17,29,14.30